#datetime,building,power
2023-09-12T00:00:00,rvs,14.84
2023-09-12T00:01:00,rvs,14.74
2023-09-12T00:02:00,rvs,14.80
2023-09-12T00:03:00,rvs,14.81
2023-09-12T00:04:00,rvs,15.66
2023-09-12T00:05:00,rvs,14.74
2023-09-12T00:06:00,rvs,14.68
2023-09-12T00:07:00,rvs,14.79
2023-09-12T00:08:00,rvs,14.71
2023-09-12T00:09:00,rvs,14.23
2023-09-12T00:10:00,rvs,13.91
2023-09-12T00:11:00,rvs,14.08
2023-09-12T00:12:00,rvs,14.70
2023-09-12T00:13:00,rvs,14.45
2023-09-12T00:14:00,rvs,14.94
2023-09-12T00:15:00,rvs,14.51
2023-09-12T00:16:00,rvs,16.48
2023-09-12T00:17:00,rvs,16.39
2023-09-12T00:18:00,rvs,17.00
2023-09-12T00:19:00,rvs,17.34
2023-09-12T00:20:00,rvs,17.74
2023-09-12T00:21:00,rvs,17.66
2023-09-12T00:22:00,rvs,17.17
2023-09-12T00:23:00,rvs,17.10
2023-09-12T00:24:00,rvs,17.43
2023-09-12T00:25:00,rvs,17.72
2023-09-12T00:26:00,rvs,18.00
2023-09-12T00:27:00,rvs,17.91
2023-09-12T00:28:00,rvs,17.79
2023-09-12T00:29:00,rvs,17.46
2023-09-12T00:30:00,rvs,17.33
2023-09-12T00:31:00,rvs,16.97
2023-09-12T00:32:00,rvs,18.63
2023-09-12T00:33:00,rvs,15.77
2023-09-12T00:34:00,rvs,15.89
2023-09-12T00:35:00,rvs,15.74
2023-09-12T00:36:00,rvs,15.79
2023-09-12T00:37:00,rvs,16.22
2023-09-12T00:38:00,rvs,16.02
2023-09-12T00:39:00,rvs,15.92
2023-09-12T00:40:00,rvs,16.36
2023-09-12T00:41:00,rvs,29.84
2023-09-12T00:42:00,rvs,29.37
2023-09-12T00:43:00,rvs,29.75
2023-09-12T00:44:00,rvs,29.53
2023-09-12T00:45:00,rvs,30.38
2023-09-12T00:46:00,rvs,17.57
2023-09-12T00:47:00,rvs,17.39
2023-09-12T00:48:00,rvs,17.66
2023-09-12T00:49:00,rvs,18.84
2023-09-12T00:50:00,rvs,18.53
2023-09-12T00:51:00,rvs,17.52
2023-09-12T00:52:00,rvs,17.23
2023-09-12T00:53:00,rvs,17.64
2023-09-12T00:54:00,rvs,16.76
2023-09-12T00:55:00,rvs,16.97
2023-09-12T00:56:00,rvs,17.44
2023-09-12T00:57:00,rvs,18.90
2023-09-12T00:58:00,rvs,13.66
2023-09-12T00:59:00,rvs,13.29
2023-09-12T01:00:00,rvs,13.13
2023-09-12T01:01:00,rvs,15.89
2023-09-12T01:02:00,rvs,15.51
2023-09-12T01:03:00,rvs,14.87
2023-09-12T01:04:00,rvs,14.59
2023-09-12T01:05:00,rvs,14.67
2023-09-12T01:06:00,rvs,14.25
2023-09-12T01:07:00,rvs,14.70
2023-09-12T01:08:00,rvs,12.94
2023-09-12T01:09:00,rvs,13.47
2023-09-12T01:10:00,rvs,13.01
2023-09-12T01:11:00,rvs,13.75
2023-09-12T01:12:00,rvs,13.30
2023-09-12T01:13:00,rvs,13.75
2023-09-12T01:14:00,rvs,13.16
2023-09-12T01:15:00,rvs,13.19
2023-09-12T01:16:00,rvs,12.93
2023-09-12T01:17:00,rvs,13.49
2023-09-12T01:18:00,rvs,13.27
2023-09-12T01:19:00,rvs,13.12
2023-09-12T01:20:00,rvs,12.42
2023-09-12T01:21:00,rvs,12.99
2023-09-12T01:22:00,rvs,12.58
2023-09-12T01:23:00,rvs,12.48
2023-09-12T01:24:00,rvs,12.55
2023-09-12T01:25:00,rvs,12.98
2023-09-12T01:26:00,rvs,12.50
2023-09-12T01:27:00,rvs,12.63
2023-09-12T01:28:00,rvs,12.77
2023-09-12T01:29:00,rvs,13.23
2023-09-12T01:30:00,rvs,12.53
2023-09-12T01:31:00,rvs,12.56
2023-09-12T01:32:00,rvs,12.64
2023-09-12T01:33:00,rvs,13.05
2023-09-12T01:34:00,rvs,12.61
2023-09-12T01:35:00,rvs,12.57
2023-09-12T01:36:00,rvs,13.06
2023-09-12T01:37:00,rvs,12.94
2023-09-12T01:38:00,rvs,12.66
2023-09-12T01:39:00,rvs,12.59
2023-09-12T01:40:00,rvs,12.59
2023-09-12T01:41:00,rvs,12.95
2023-09-12T01:42:00,rvs,12.52
2023-09-12T01:43:00,rvs,12.45
2023-09-12T01:44:00,rvs,12.45
2023-09-12T01:45:00,rvs,12.77
2023-09-12T01:46:00,rvs,12.21
2023-09-12T01:47:00,rvs,13.20
2023-09-12T01:48:00,rvs,13.60
2023-09-12T01:49:00,rvs,14.02
2023-09-12T01:50:00,rvs,13.01
2023-09-12T01:51:00,rvs,13.05
2023-09-12T01:52:00,rvs,13.20
2023-09-12T01:53:00,rvs,13.96
2023-09-12T01:54:00,rvs,13.41
2023-09-12T01:55:00,rvs,16.11
2023-09-12T01:56:00,rvs,16.00
2023-09-12T01:57:00,rvs,15.98
2023-09-12T01:58:00,rvs,15.97
2023-09-12T01:59:00,rvs,15.24
2023-09-12T02:00:00,rvs,14.83
2023-09-12T02:01:00,rvs,14.90
2023-09-12T02:02:00,rvs,15.08
2023-09-12T02:03:00,rvs,13.72
2023-09-12T02:04:00,rvs,15.50
2023-09-12T02:05:00,rvs,15.42
2023-09-12T02:06:00,rvs,15.63
2023-09-12T02:07:00,rvs,16.08
2023-09-12T02:08:00,rvs,16.89
2023-09-12T02:09:00,rvs,16.62
2023-09-12T02:10:00,rvs,16.54
2023-09-12T02:11:00,rvs,16.51
2023-09-12T02:12:00,rvs,17.03
2023-09-12T02:13:00,rvs,16.91
2023-09-12T02:14:00,rvs,17.12
2023-09-12T02:15:00,rvs,13.21
2023-09-12T02:16:00,rvs,12.96
2023-09-12T02:17:00,rvs,12.96
2023-09-12T02:18:00,rvs,12.96
2023-09-12T02:19:00,rvs,13.48
2023-09-12T02:20:00,rvs,13.54
2023-09-12T02:21:00,rvs,13.52
2023-09-12T02:22:00,rvs,12.92
2023-09-12T02:23:00,rvs,14.70
2023-09-12T02:24:00,rvs,15.18
2023-09-12T02:25:00,rvs,15.19
2023-09-12T02:26:00,rvs,14.45
2023-09-12T02:27:00,rvs,15.07
2023-09-12T02:28:00,rvs,12.86
2023-09-12T02:29:00,rvs,12.98
2023-09-12T02:30:00,rvs,15.23
2023-09-12T02:31:00,rvs,15.11
2023-09-12T02:32:00,rvs,15.21
2023-09-12T02:33:00,rvs,14.91
2023-09-12T02:34:00,rvs,14.32
2023-09-12T02:35:00,rvs,14.59
2023-09-12T02:36:00,rvs,14.63
2023-09-12T02:37:00,rvs,14.87
2023-09-12T02:38:00,rvs,14.63
2023-09-12T02:39:00,rvs,14.63
2023-09-12T02:40:00,rvs,15.54
2023-09-12T02:41:00,rvs,16.98
2023-09-12T02:42:00,rvs,16.87
2023-09-12T02:43:00,rvs,16.56
2023-09-12T02:44:00,rvs,16.18
2023-09-12T02:45:00,rvs,15.32
2023-09-12T02:46:00,rvs,15.96
2023-09-12T02:47:00,rvs,16.99
2023-09-12T02:48:00,rvs,17.75
2023-09-12T02:49:00,rvs,19.32
2023-09-12T02:50:00,rvs,20.08
2023-09-12T02:51:00,rvs,19.88
2023-09-12T02:52:00,rvs,20.89
2023-09-12T02:53:00,rvs,19.84
2023-09-12T02:54:00,rvs,16.20
2023-09-12T02:55:00,rvs,16.20
2023-09-12T02:56:00,rvs,12.64
2023-09-12T02:57:00,rvs,15.33
2023-09-12T02:58:00,rvs,15.54
2023-09-12T02:59:00,rvs,15.72
2023-09-12T03:00:00,rvs,16.47
2023-09-12T03:01:00,rvs,16.96
2023-09-12T03:02:00,rvs,16.78
2023-09-12T03:03:00,rvs,16.19
2023-09-12T03:04:00,rvs,16.66
2023-09-12T03:05:00,rvs,12.35
2023-09-12T03:06:00,rvs,12.36
2023-09-12T03:07:00,rvs,12.71
2023-09-12T03:08:00,rvs,12.85
2023-09-12T03:09:00,rvs,12.73
2023-09-12T03:10:00,rvs,12.69
2023-09-12T03:11:00,rvs,12.81
2023-09-12T03:12:00,rvs,12.84
2023-09-12T03:13:00,rvs,12.78
2023-09-12T03:14:00,rvs,12.85
2023-09-12T03:15:00,rvs,12.91
2023-09-12T03:16:00,rvs,12.85
2023-09-12T03:17:00,rvs,12.94
2023-09-12T03:18:00,rvs,12.89
2023-09-12T03:19:00,rvs,12.86
2023-09-12T03:20:00,rvs,12.74
2023-09-12T03:21:00,rvs,14.77
2023-09-12T03:22:00,rvs,15.31
2023-09-12T03:23:00,rvs,15.70
2023-09-12T03:24:00,rvs,15.73
2023-09-12T03:25:00,rvs,16.45
2023-09-12T03:26:00,rvs,18.93
2023-09-12T03:27:00,rvs,19.12
2023-09-12T03:28:00,rvs,19.25
2023-09-12T03:29:00,rvs,18.96
2023-09-12T03:30:00,rvs,19.39
2023-09-12T03:31:00,rvs,19.82
2023-09-12T03:32:00,rvs,20.06
2023-09-12T03:33:00,rvs,20.15
2023-09-12T03:34:00,rvs,19.96
2023-09-12T03:35:00,rvs,33.60
2023-09-12T03:36:00,rvs,33.78
2023-09-12T03:37:00,rvs,33.41
2023-09-12T03:38:00,rvs,32.58
2023-09-12T03:39:00,rvs,20.04
2023-09-12T03:40:00,rvs,16.17
2023-09-12T03:41:00,rvs,16.37
2023-09-12T03:42:00,rvs,16.51
2023-09-12T03:43:00,rvs,12.24
2023-09-12T03:44:00,rvs,12.60
2023-09-12T03:45:00,rvs,12.44
2023-09-12T03:46:00,rvs,12.30
2023-09-12T03:47:00,rvs,12.19
2023-09-12T03:48:00,rvs,12.73
2023-09-12T03:49:00,rvs,12.22
2023-09-12T03:50:00,rvs,12.41
2023-09-12T03:51:00,rvs,12.50
2023-09-12T03:52:00,rvs,12.41
2023-09-12T03:53:00,rvs,12.42
2023-09-12T03:54:00,rvs,12.56
2023-09-12T03:55:00,rvs,12.57
2023-09-12T03:56:00,rvs,12.68
2023-09-12T03:57:00,rvs,12.91
2023-09-12T03:58:00,rvs,12.93
2023-09-12T03:59:00,rvs,12.23
2023-09-12T04:00:00,rvs,12.77
2023-09-12T04:01:00,rvs,13.20
2023-09-12T04:02:00,rvs,13.77
2023-09-12T04:03:00,rvs,13.24
2023-09-12T04:04:00,rvs,13.20
2023-09-12T04:05:00,rvs,13.28
2023-09-12T04:06:00,rvs,13.25
2023-09-12T04:07:00,rvs,13.22
2023-09-12T04:08:00,rvs,13.35
2023-09-12T04:09:00,rvs,13.30
2023-09-12T04:10:00,rvs,13.38
2023-09-12T04:11:00,rvs,13.86
2023-09-12T04:12:00,rvs,13.89
2023-09-12T04:13:00,rvs,13.75
2023-09-12T04:14:00,rvs,13.24
2023-09-12T04:15:00,rvs,13.23
2023-09-12T04:16:00,rvs,13.05
2023-09-12T04:17:00,rvs,12.84
2023-09-12T04:18:00,rvs,12.71
2023-09-12T04:19:00,rvs,12.92
2023-09-12T04:20:00,rvs,13.12
2023-09-12T04:21:00,rvs,12.64
2023-09-12T04:22:00,rvs,12.59
2023-09-12T04:23:00,rvs,12.56
2023-09-12T04:24:00,rvs,13.13
2023-09-12T04:25:00,rvs,12.65
2023-09-12T04:26:00,rvs,12.48
2023-09-12T04:27:00,rvs,12.87
2023-09-12T04:28:00,rvs,13.45
2023-09-12T04:29:00,rvs,13.06
2023-09-12T04:30:00,rvs,12.54
2023-09-12T04:31:00,rvs,12.36
2023-09-12T04:32:00,rvs,12.88
2023-09-12T04:33:00,rvs,12.37
2023-09-12T04:34:00,rvs,12.26
2023-09-12T04:35:00,rvs,14.57
2023-09-12T04:36:00,rvs,15.35
2023-09-12T04:37:00,rvs,15.24
2023-09-12T04:38:00,rvs,16.07
2023-09-12T04:39:00,rvs,18.37
2023-09-12T04:40:00,rvs,18.00
2023-09-12T04:41:00,rvs,17.87
2023-09-12T04:42:00,rvs,17.69
2023-09-12T04:43:00,rvs,18.25
2023-09-12T04:44:00,rvs,19.25
2023-09-12T04:45:00,rvs,19.52
2023-09-12T04:46:00,rvs,20.43
2023-09-12T04:47:00,rvs,16.96
2023-09-12T04:48:00,rvs,17.33
2023-09-12T04:49:00,rvs,17.33
2023-09-12T04:50:00,rvs,17.45
2023-09-12T04:51:00,rvs,17.46
2023-09-12T04:52:00,rvs,18.10
2023-09-12T04:53:00,rvs,12.51
2023-09-12T04:54:00,rvs,12.92
2023-09-12T04:55:00,rvs,12.80
2023-09-12T04:56:00,rvs,13.26
2023-09-12T04:57:00,rvs,12.68
2023-09-12T04:58:00,rvs,12.67
2023-09-12T04:59:00,rvs,13.23
2023-09-12T05:00:00,rvs,13.73
2023-09-12T05:01:00,rvs,13.14
2023-09-12T05:02:00,rvs,12.48
2023-09-12T05:03:00,rvs,12.53
2023-09-12T05:04:00,rvs,13.03
2023-09-12T05:05:00,rvs,12.41
2023-09-12T05:06:00,rvs,12.46
2023-09-12T05:07:00,rvs,12.43
2023-09-12T05:08:00,rvs,12.34
2023-09-12T05:09:00,rvs,12.42
2023-09-12T05:10:00,rvs,12.21
2023-09-12T05:11:00,rvs,12.24
2023-09-12T05:12:00,rvs,12.69
2023-09-12T05:13:00,rvs,12.65
2023-09-12T05:14:00,rvs,12.46
2023-09-12T05:15:00,rvs,12.32
2023-09-12T05:16:00,rvs,12.29
2023-09-12T05:17:00,rvs,13.02
2023-09-12T05:18:00,rvs,13.03
2023-09-12T05:19:00,rvs,13.15
2023-09-12T05:20:00,rvs,13.06
2023-09-12T05:21:00,rvs,13.11
2023-09-12T05:22:00,rvs,12.93
2023-09-12T05:23:00,rvs,12.86
2023-09-12T05:24:00,rvs,12.77
2023-09-12T05:25:00,rvs,12.77
2023-09-12T05:26:00,rvs,12.92
2023-09-12T05:27:00,rvs,12.47
2023-09-12T05:28:00,rvs,12.45
2023-09-12T05:29:00,rvs,12.68
2023-09-12T05:30:00,rvs,12.70
2023-09-12T05:31:00,rvs,12.64
2023-09-12T05:32:00,rvs,12.61
2023-09-12T05:33:00,rvs,13.06
2023-09-12T05:34:00,rvs,13.05
2023-09-12T05:35:00,rvs,12.79
2023-09-12T05:36:00,rvs,12.26
2023-09-12T05:37:00,rvs,12.38
2023-09-12T05:38:00,rvs,12.39
2023-09-12T05:39:00,rvs,12.24
2023-09-12T05:40:00,rvs,12.43
2023-09-12T05:41:00,rvs,12.42
2023-09-12T05:42:00,rvs,12.27
2023-09-12T05:43:00,rvs,12.29
2023-09-12T05:44:00,rvs,12.33
2023-09-12T05:45:00,rvs,14.67
2023-09-12T05:46:00,rvs,15.01
2023-09-12T05:47:00,rvs,15.47
2023-09-12T05:48:00,rvs,15.26
2023-09-12T05:49:00,rvs,15.91
2023-09-12T05:50:00,rvs,15.99
2023-09-12T05:51:00,rvs,16.59
2023-09-12T05:52:00,rvs,17.62
2023-09-12T05:53:00,rvs,17.64
2023-09-12T05:54:00,rvs,18.30
2023-09-12T05:55:00,rvs,18.12
2023-09-12T05:56:00,rvs,18.62
2023-09-12T05:57:00,rvs,18.38
2023-09-12T05:58:00,rvs,17.65
2023-09-12T05:59:00,rvs,17.49
2023-09-12T06:00:00,rvs,17.82
2023-09-12T06:01:00,rvs,17.61
2023-09-12T06:02:00,rvs,17.62
2023-09-12T06:03:00,rvs,17.66
2023-09-12T06:04:00,rvs,18.04
2023-09-12T06:05:00,rvs,12.78
2023-09-12T06:06:00,rvs,13.12
2023-09-12T06:07:00,rvs,13.20
2023-09-12T06:08:00,rvs,13.55
2023-09-12T06:09:00,rvs,12.40
2023-09-12T06:10:00,rvs,12.18
2023-09-12T06:11:00,rvs,12.16
2023-09-12T06:12:00,rvs,13.34
2023-09-12T06:13:00,rvs,12.87
2023-09-12T06:14:00,rvs,12.83
2023-09-12T06:15:00,rvs,12.76
2023-09-12T06:16:00,rvs,13.17
2023-09-12T06:17:00,rvs,12.55
2023-09-12T06:18:00,rvs,13.07
2023-09-12T06:19:00,rvs,13.37
2023-09-12T06:20:00,rvs,13.38
2023-09-12T06:21:00,rvs,13.05
2023-09-12T06:22:00,rvs,13.16
2023-09-12T06:23:00,rvs,12.79
2023-09-12T06:24:00,rvs,13.10
2023-09-12T06:25:00,rvs,12.89
2023-09-12T06:26:00,rvs,12.73
2023-09-12T06:27:00,rvs,13.05
2023-09-12T06:28:00,rvs,13.23
2023-09-12T06:29:00,rvs,12.94
2023-09-12T06:30:00,rvs,12.79
2023-09-12T06:31:00,rvs,12.01
2023-09-12T06:32:00,rvs,12.10
2023-09-12T06:33:00,rvs,14.31
2023-09-12T06:34:00,rvs,14.72
2023-09-12T06:35:00,rvs,15.12
2023-09-12T06:36:00,rvs,15.39
2023-09-12T06:37:00,rvs,16.14
2023-09-12T06:38:00,rvs,16.50
2023-09-12T06:39:00,rvs,16.86
2023-09-12T06:40:00,rvs,16.32
2023-09-12T06:41:00,rvs,16.15
2023-09-12T06:42:00,rvs,16.47
2023-09-12T06:43:00,rvs,15.45
2023-09-12T06:44:00,rvs,15.79
2023-09-12T06:45:00,rvs,28.62
2023-09-12T06:46:00,rvs,28.70
2023-09-12T06:47:00,rvs,28.79
2023-09-12T06:48:00,rvs,28.78
2023-09-12T06:49:00,rvs,16.35
2023-09-12T06:50:00,rvs,16.59
2023-09-12T06:51:00,rvs,16.92
2023-09-12T06:52:00,rvs,16.36
2023-09-12T06:53:00,rvs,16.46
2023-09-12T06:54:00,rvs,16.32
2023-09-12T06:55:00,rvs,16.56
2023-09-12T06:56:00,rvs,12.73
2023-09-12T06:57:00,rvs,13.87
2023-09-12T06:58:00,rvs,12.34
2023-09-12T06:59:00,rvs,12.42
2023-09-12T07:00:00,rvs,12.66
2023-09-12T07:01:00,rvs,12.40
2023-09-12T07:02:00,rvs,11.72
2023-09-12T07:03:00,rvs,11.91
2023-09-12T07:04:00,rvs,11.84
2023-09-12T07:05:00,rvs,11.96
2023-09-12T07:06:00,rvs,12.04
2023-09-12T07:07:00,rvs,12.69
2023-09-12T07:08:00,rvs,12.54
2023-09-12T07:09:00,rvs,12.46
2023-09-12T07:10:00,rvs,12.66
2023-09-12T07:11:00,rvs,12.74
2023-09-12T07:12:00,rvs,13.11
2023-09-12T07:13:00,rvs,12.64
2023-09-12T07:14:00,rvs,13.15
2023-09-12T07:15:00,rvs,12.99
2023-09-12T07:16:00,rvs,12.55
2023-09-12T07:17:00,rvs,12.58
2023-09-12T07:18:00,rvs,12.96
2023-09-12T07:19:00,rvs,13.25
2023-09-12T07:20:00,rvs,13.28
2023-09-12T07:21:00,rvs,12.90
2023-09-12T07:22:00,rvs,12.97
2023-09-12T07:23:00,rvs,12.88
2023-09-12T07:24:00,rvs,12.81
2023-09-12T07:25:00,rvs,12.95
2023-09-12T07:26:00,rvs,12.80
2023-09-12T07:27:00,rvs,12.75
2023-09-12T07:28:00,rvs,12.71
2023-09-12T07:29:00,rvs,12.98
2023-09-12T07:30:00,rvs,15.30
2023-09-12T07:31:00,rvs,15.69
2023-09-12T07:32:00,rvs,16.36
2023-09-12T07:33:00,rvs,16.63
2023-09-12T07:34:00,rvs,17.24
2023-09-12T07:35:00,rvs,17.18
2023-09-12T07:36:00,rvs,17.27
2023-09-12T07:37:00,rvs,17.44
2023-09-12T07:38:00,rvs,13.89
2023-09-12T07:39:00,rvs,12.66
2023-09-12T07:40:00,rvs,12.28
2023-09-12T07:41:00,rvs,12.38
2023-09-12T07:42:00,rvs,13.36
2023-09-12T07:43:00,rvs,12.78
2023-09-12T07:44:00,rvs,12.52
2023-09-12T07:45:00,rvs,13.06
2023-09-12T07:46:00,rvs,13.67
2023-09-12T07:47:00,rvs,12.54
2023-09-12T07:48:00,rvs,12.58
2023-09-12T07:49:00,rvs,13.15
2023-09-12T07:50:00,rvs,13.55
2023-09-12T07:51:00,rvs,13.19
2023-09-12T07:52:00,rvs,13.12
2023-09-12T07:53:00,rvs,13.02
2023-09-12T07:54:00,rvs,13.69
2023-09-12T07:55:00,rvs,13.14
2023-09-12T07:56:00,rvs,12.63
2023-09-12T07:57:00,rvs,12.57
2023-09-12T07:58:00,rvs,13.52
2023-09-12T07:59:00,rvs,13.08
2023-09-12T08:00:00,rvs,12.80
2023-09-12T08:01:00,rvs,12.88
2023-09-12T08:02:00,rvs,13.09
2023-09-12T08:03:00,rvs,12.94
2023-09-12T08:04:00,rvs,13.04
2023-09-12T08:05:00,rvs,12.49
2023-09-12T08:06:00,rvs,12.74
2023-09-12T08:07:00,rvs,12.32
2023-09-12T08:08:00,rvs,12.03
2023-09-12T08:09:00,rvs,12.35
2023-09-12T08:10:00,rvs,12.69
2023-09-12T08:11:00,rvs,12.27
2023-09-12T08:12:00,rvs,13.04
2023-09-12T08:13:00,rvs,12.98
2023-09-12T08:14:00,rvs,14.22
2023-09-12T08:15:00,rvs,13.14
2023-09-12T08:16:00,rvs,13.64
2023-09-12T08:17:00,rvs,13.79
2023-09-12T08:18:00,rvs,14.20
2023-09-12T08:19:00,rvs,13.38
2023-09-12T08:20:00,rvs,13.54
2023-09-12T08:21:00,rvs,13.43
2023-09-12T08:22:00,rvs,15.97
2023-09-12T08:23:00,rvs,15.56
2023-09-12T08:24:00,rvs,15.98
2023-09-12T08:25:00,rvs,16.07
2023-09-12T08:26:00,rvs,16.64
2023-09-12T08:27:00,rvs,17.33
2023-09-12T08:28:00,rvs,17.66
2023-09-12T08:29:00,rvs,18.25
2023-09-12T08:30:00,rvs,14.19
2023-09-12T08:31:00,rvs,13.80
2023-09-12T08:32:00,rvs,13.89
2023-09-12T08:33:00,rvs,13.79
2023-09-12T08:34:00,rvs,13.90
2023-09-12T08:35:00,rvs,13.82
2023-09-12T08:36:00,rvs,14.73
2023-09-12T08:37:00,rvs,16.08
2023-09-12T08:38:00,rvs,16.08
2023-09-12T08:39:00,rvs,15.76
2023-09-12T08:40:00,rvs,15.61
2023-09-12T08:41:00,rvs,17.49
2023-09-12T08:42:00,rvs,17.63
2023-09-12T08:43:00,rvs,18.46
2023-09-12T08:44:00,rvs,20.16
2023-09-12T08:45:00,rvs,22.94
2023-09-12T08:46:00,rvs,23.88
2023-09-12T08:47:00,rvs,23.71
2023-09-12T08:48:00,rvs,23.55
2023-09-12T08:49:00,rvs,22.49
2023-09-12T08:50:00,rvs,22.86
2023-09-12T08:51:00,rvs,21.23
2023-09-12T08:52:00,rvs,20.83
2023-09-12T08:53:00,rvs,21.44
2023-09-12T08:54:00,rvs,22.76
2023-09-12T08:55:00,rvs,20.25
2023-09-12T08:56:00,rvs,41.27
2023-09-12T08:57:00,rvs,19.90
2023-09-12T08:58:00,rvs,20.16
2023-09-12T08:59:00,rvs,22.11
2023-09-12T09:00:00,rvs,23.13
2023-09-12T09:01:00,rvs,24.64
2023-09-12T09:02:00,rvs,24.66
2023-09-12T09:03:00,rvs,18.48
2023-09-12T09:04:00,rvs,18.60
2023-09-12T09:05:00,rvs,18.84
2023-09-12T09:06:00,rvs,18.60
2023-09-12T09:07:00,rvs,18.63
2023-09-12T09:08:00,rvs,18.66
2023-09-12T09:09:00,rvs,18.61
2023-09-12T09:10:00,rvs,18.64
2023-09-12T09:11:00,rvs,17.63
2023-09-12T09:12:00,rvs,17.46
2023-09-12T09:13:00,rvs,17.35
2023-09-12T09:14:00,rvs,17.08
2023-09-12T09:15:00,rvs,16.62
2023-09-12T09:16:00,rvs,16.65
2023-09-12T09:17:00,rvs,17.87
2023-09-12T09:18:00,rvs,18.63
2023-09-12T09:19:00,rvs,20.08
2023-09-12T09:20:00,rvs,19.90
2023-09-12T09:21:00,rvs,22.12
2023-09-12T09:22:00,rvs,25.09
2023-09-12T09:23:00,rvs,25.03
2023-09-12T09:24:00,rvs,25.19
2023-09-12T09:25:00,rvs,26.04
2023-09-12T09:26:00,rvs,26.98
2023-09-12T09:27:00,rvs,26.94
2023-09-12T09:28:00,rvs,26.92
2023-09-12T09:29:00,rvs,22.20
2023-09-12T09:30:00,rvs,21.56
2023-09-12T09:31:00,rvs,21.38
2023-09-12T09:32:00,rvs,21.27
2023-09-12T09:33:00,rvs,21.15
2023-09-12T09:34:00,rvs,16.90
2023-09-12T09:35:00,rvs,17.54
2023-09-12T09:36:00,rvs,17.35
2023-09-12T09:37:00,rvs,19.33
2023-09-12T09:38:00,rvs,15.03
2023-09-12T09:39:00,rvs,15.11
2023-09-12T09:40:00,rvs,16.37
2023-09-12T09:41:00,rvs,17.74
2023-09-12T09:42:00,rvs,15.85
2023-09-12T09:43:00,rvs,15.10
2023-09-12T09:44:00,rvs,13.35
2023-09-12T09:45:00,rvs,13.92
2023-09-12T09:46:00,rvs,13.37
2023-09-12T09:47:00,rvs,13.24
2023-09-12T09:48:00,rvs,13.13
2023-09-12T09:49:00,rvs,13.24
2023-09-12T09:50:00,rvs,13.08
2023-09-12T09:51:00,rvs,13.00
2023-09-12T09:52:00,rvs,12.94
2023-09-12T09:53:00,rvs,15.41
2023-09-12T09:54:00,rvs,16.36
2023-09-12T09:55:00,rvs,17.54
2023-09-12T09:56:00,rvs,18.82
2023-09-12T09:57:00,rvs,18.25
2023-09-12T09:58:00,rvs,17.42
2023-09-12T09:59:00,rvs,17.91
2023-09-12T10:00:00,rvs,18.11
2023-09-12T10:01:00,rvs,16.94
2023-09-12T10:02:00,rvs,17.71
2023-09-12T10:03:00,rvs,12.63
2023-09-12T10:04:00,rvs,12.55
2023-09-12T10:05:00,rvs,12.54
2023-09-12T10:06:00,rvs,12.59
2023-09-12T10:07:00,rvs,13.27
2023-09-12T10:08:00,rvs,12.90
2023-09-12T10:09:00,rvs,12.89
2023-09-12T10:10:00,rvs,26.39
2023-09-12T10:11:00,rvs,25.82
2023-09-12T10:12:00,rvs,26.05
2023-09-12T10:13:00,rvs,25.55
2023-09-12T10:14:00,rvs,12.90
2023-09-12T10:15:00,rvs,13.56
2023-09-12T10:16:00,rvs,14.07
2023-09-12T10:17:00,rvs,30.84
2023-09-12T10:18:00,rvs,14.46
2023-09-12T10:19:00,rvs,14.57
2023-09-12T10:20:00,rvs,14.85
2023-09-12T10:21:00,rvs,13.74
2023-09-12T10:22:00,rvs,12.90
2023-09-12T10:23:00,rvs,15.59
2023-09-12T10:24:00,rvs,16.91
2023-09-12T10:25:00,rvs,16.71
2023-09-12T10:26:00,rvs,18.16
2023-09-12T10:27:00,rvs,18.69
2023-09-12T10:28:00,rvs,18.99
2023-09-12T10:29:00,rvs,18.62
2023-09-12T10:30:00,rvs,18.73
2023-09-12T10:31:00,rvs,19.28
2023-09-12T10:32:00,rvs,20.43
2023-09-12T10:33:00,rvs,19.05
2023-09-12T10:34:00,rvs,18.99
2023-09-12T10:35:00,rvs,34.25
2023-09-12T10:36:00,rvs,15.58
2023-09-12T10:37:00,rvs,15.78
2023-09-12T10:38:00,rvs,15.95
2023-09-12T10:39:00,rvs,15.37
2023-09-12T10:40:00,rvs,15.13
2023-09-12T10:41:00,rvs,14.05
2023-09-12T10:42:00,rvs,13.97
2023-09-12T10:43:00,rvs,15.15
2023-09-12T10:44:00,rvs,13.73
2023-09-12T10:45:00,rvs,15.26
2023-09-12T10:46:00,rvs,17.32
2023-09-12T10:47:00,rvs,17.82
2023-09-12T10:48:00,rvs,17.68
2023-09-12T10:49:00,rvs,18.81
2023-09-12T10:50:00,rvs,19.97
2023-09-12T10:51:00,rvs,20.26
2023-09-12T10:52:00,rvs,19.89
2023-09-12T10:53:00,rvs,17.67
2023-09-12T10:54:00,rvs,21.35
2023-09-12T10:55:00,rvs,22.75
2023-09-12T10:56:00,rvs,22.11
2023-09-12T10:57:00,rvs,22.24
2023-09-12T10:58:00,rvs,22.72
2023-09-12T10:59:00,rvs,19.22
2023-09-12T11:00:00,rvs,18.85
2023-09-12T11:01:00,rvs,15.61
2023-09-12T11:02:00,rvs,15.78
2023-09-12T11:03:00,rvs,15.52
2023-09-12T11:04:00,rvs,14.22
2023-09-12T11:05:00,rvs,13.42
2023-09-12T11:06:00,rvs,12.97
2023-09-12T11:07:00,rvs,13.02
2023-09-12T11:08:00,rvs,12.91
2023-09-12T11:09:00,rvs,13.10
2023-09-12T11:10:00,rvs,12.60
2023-09-12T11:11:00,rvs,13.34
2023-09-12T11:12:00,rvs,13.22
2023-09-12T11:13:00,rvs,12.81
2023-09-12T11:14:00,rvs,12.97
2023-09-12T11:15:00,rvs,15.99
2023-09-12T11:16:00,rvs,15.63
2023-09-12T11:17:00,rvs,16.80
2023-09-12T11:18:00,rvs,17.83
2023-09-12T11:19:00,rvs,17.94
2023-09-12T11:20:00,rvs,16.39
2023-09-12T11:21:00,rvs,17.01
2023-09-12T11:22:00,rvs,17.00
2023-09-12T11:23:00,rvs,17.69
2023-09-12T11:24:00,rvs,16.80
2023-09-12T11:25:00,rvs,16.95
2023-09-12T11:26:00,rvs,17.51
2023-09-12T11:27:00,rvs,18.06
2023-09-12T11:28:00,rvs,17.60
2023-09-12T11:29:00,rvs,22.23
2023-09-12T11:30:00,rvs,22.36
2023-09-12T11:31:00,rvs,24.61
2023-09-12T11:32:00,rvs,25.52
2023-09-12T11:33:00,rvs,24.79
2023-09-12T11:34:00,rvs,24.71
2023-09-12T11:35:00,rvs,27.53
2023-09-12T11:36:00,rvs,47.90
2023-09-12T11:37:00,rvs,30.23
2023-09-12T11:38:00,rvs,30.67
2023-09-12T11:39:00,rvs,31.59
2023-09-12T11:40:00,rvs,27.59
2023-09-12T11:41:00,rvs,27.24
2023-09-12T11:42:00,rvs,27.12
2023-09-12T11:43:00,rvs,26.60
2023-09-12T11:44:00,rvs,27.84
2023-09-12T11:45:00,rvs,27.96
2023-09-12T11:46:00,rvs,24.87
2023-09-12T11:47:00,rvs,28.98
2023-09-12T11:48:00,rvs,28.27
2023-09-12T11:49:00,rvs,24.58
2023-09-12T11:50:00,rvs,23.44
2023-09-12T11:51:00,rvs,19.46
2023-09-12T11:52:00,rvs,23.61
2023-09-12T11:53:00,rvs,20.59
2023-09-12T11:54:00,rvs,18.47
2023-09-12T11:55:00,rvs,18.36
2023-09-12T11:56:00,rvs,24.76
2023-09-12T11:57:00,rvs,24.88
2023-09-12T11:58:00,rvs,22.35
2023-09-12T11:59:00,rvs,18.29
2023-09-12T12:00:00,rvs,23.18
2023-09-12T12:01:00,rvs,26.35
2023-09-12T12:02:00,rvs,22.39
2023-09-12T12:03:00,rvs,26.17
2023-09-12T12:04:00,rvs,26.80
2023-09-12T12:05:00,rvs,22.96
2023-09-12T12:06:00,rvs,23.04
2023-09-12T12:07:00,rvs,28.00
2023-09-12T12:08:00,rvs,24.39
2023-09-12T12:09:00,rvs,18.11
2023-09-12T12:10:00,rvs,22.40
2023-09-12T12:11:00,rvs,22.08
2023-09-12T12:12:00,rvs,12.88
2023-09-12T12:13:00,rvs,12.80
2023-09-12T12:14:00,rvs,17.21
2023-09-12T12:15:00,rvs,15.56
2023-09-12T12:16:00,rvs,16.87
2023-09-12T12:17:00,rvs,15.56
2023-09-12T12:18:00,rvs,20.88
2023-09-12T12:19:00,rvs,17.32
2023-09-12T12:20:00,rvs,16.67
2023-09-12T12:21:00,rvs,15.92
2023-09-12T12:22:00,rvs,16.98
2023-09-12T12:23:00,rvs,16.83
2023-09-12T12:24:00,rvs,17.60
2023-09-12T12:25:00,rvs,20.57
2023-09-12T12:26:00,rvs,20.73
2023-09-12T12:27:00,rvs,20.98
2023-09-12T12:28:00,rvs,18.56
2023-09-12T12:29:00,rvs,18.01
2023-09-12T12:30:00,rvs,18.17
2023-09-12T12:31:00,rvs,17.70
2023-09-12T12:32:00,rvs,19.20
2023-09-12T12:33:00,rvs,17.70
2023-09-12T12:34:00,rvs,18.25
2023-09-12T12:35:00,rvs,17.97
2023-09-12T12:36:00,rvs,17.70
2023-09-12T12:37:00,rvs,13.39
2023-09-12T12:38:00,rvs,13.97
2023-09-12T12:39:00,rvs,16.10
2023-09-12T12:40:00,rvs,15.81
2023-09-12T12:41:00,rvs,15.34
2023-09-12T12:42:00,rvs,16.06
2023-09-12T12:43:00,rvs,13.29
2023-09-12T12:44:00,rvs,13.13
2023-09-12T12:45:00,rvs,13.81
2023-09-12T12:46:00,rvs,14.07
2023-09-12T12:47:00,rvs,13.37
2023-09-12T12:48:00,rvs,13.21
2023-09-12T12:49:00,rvs,13.26
2023-09-12T12:50:00,rvs,13.79
2023-09-12T12:51:00,rvs,13.00
2023-09-12T12:52:00,rvs,12.78
2023-09-12T12:53:00,rvs,12.73
2023-09-12T12:54:00,rvs,12.67
2023-09-12T12:55:00,rvs,13.34
2023-09-12T12:56:00,rvs,13.28
2023-09-12T12:57:00,rvs,13.05
2023-09-12T12:58:00,rvs,12.43
2023-09-12T12:59:00,rvs,12.63
2023-09-12T13:00:00,rvs,12.81
2023-09-12T13:01:00,rvs,25.52
2023-09-12T13:02:00,rvs,25.44
2023-09-12T13:03:00,rvs,25.28
2023-09-12T13:04:00,rvs,12.60
2023-09-12T13:05:00,rvs,12.52
2023-09-12T13:06:00,rvs,12.37
2023-09-12T13:07:00,rvs,15.30
2023-09-12T13:08:00,rvs,18.68
2023-09-12T13:09:00,rvs,23.23
2023-09-12T13:10:00,rvs,23.28
2023-09-12T13:11:00,rvs,27.80
2023-09-12T13:12:00,rvs,28.60
2023-09-12T13:13:00,rvs,27.40
2023-09-12T13:14:00,rvs,28.35
2023-09-12T13:15:00,rvs,31.00
2023-09-12T13:16:00,rvs,31.24
2023-09-12T13:17:00,rvs,31.32
2023-09-12T13:18:00,rvs,30.21